Flag for USA

Past Weather in 33°56'40.8"N, 118°03'29.5"W, USA — Yesterday and Last 2 Weeks

Now
74 °F

Sunny.


Feels Like: 76 °F
Forecast: 82 / 65 °F
Wind: No wind

Location: Los Angeles / USC Campus Downtown
Current Time: Sep 26, 2020 at 6:53:23 pm
Latest Report: Sep 26, 2020 at 5:52 pm
Visibility: 8 mi
Pressure29.84 "Hg
Humidity: 69%
Dew Point: 63 °F
Location of 33°56'40.8"N, 118°03'29.5"WLocation

Past Weather in 33°56'40.8"N, 118°03'29.5"W — Graph

°F

33°56'40.8"N, 118°03'29.5"W Temperature Yesterday

Maximum temperature yesterday: 81 °F (at 12:52 pm)
Minimum temperature yesterday: 66 °F (at 2:19 am)
Average temperature yesterday: 71 °F

High & Low Weather Summary for the Past Weeks

 TemperatureHumidityPressure
High95 °F (Sep 18, 12:52 pm)90% (Sep 20, 7:52 am)30.09 "Hg (Sep 20, 7:52 am)
Low62 °F (Sep 13, 4:52 am)14% (Sep 17, 12:52 pm)29.78 "Hg (Sep 19, 5:52 pm)
Average72 °F63%29.91 "Hg
* Reported Sep 11 4:52 pm — Sep 26 4:52 pm, 33°56'40.8"N, 118°03'29.5"W. Weather by CustomWeather, © 2020

Note: Actual official high and low records may vary slightly from our data, if they occured in-between our weather recording intervals... More about our weather records

33°56'40.8"N, 118°03'29.5"W Weather History for the Previous 24 Hours

Scroll right to see more
 ConditionsComfort  
Time TempWeatherWind HumidityBarometerVisibility
4:52 pm
Sat, Sep 26
76 °FSunny.6 mph64%29.84 "Hg8 mi
3:52 pm77 °FSunny.5 mph62%29.85 "Hg8 mi
2:52 pm78 °FSunny.No wind58%29.85 "Hg8 mi
1:52 pm80 °FSunny.N/A54%29.86 "Hg7 mi
12:52 pm80 °FSunny.3 mph51%29.89 "Hg7 mi
11:52 am78 °FSunny.No wind60%29.92 "Hg6 mi
10:52 am73 °FScattered clouds.No wind66%29.94 "Hg5 mi
10:00 am70 °FOvercast.No wind73%29.96 "Hg5 mi
8:52 am69 °FOvercast.No wind76%29.94 "Hg6 mi
7:52 am68 °FOvercast.No wind78%29.93 "Hg6 mi
6:52 am68 °FOvercast.No wind78%29.92 "Hg6 mi
5:52 am68 °FOvercast.No wind78%29.91 "Hg6 mi
4:52 am67 °FLow clouds.No wind85%29.91 "Hg5 mi
3:52 am67 °FLow clouds.No wind85%29.92 "Hg5 mi
2:52 am67 °FLow clouds.No wind85%29.93 "Hg7 mi
2:12 am67 °FPassing clouds.No wind81%29.94 "Hg7 mi
2:03 am66 °FPassing clouds.No wind84%29.94 "Hg7 mi
12:52 am67 °FClear.No wind85%29.93 "Hg8 mi
11:52 pm
Fri, Sep 25
67 °FClear.No wind85%29.93 "Hg7 mi
10:52 pm68 °FClear.No wind84%29.94 "Hg7 mi
9:52 pm68 °FClear.No wind82%29.93 "Hg8 mi
8:52 pm70 °FClear.No wind76%29.92 "Hg9 mi
7:52 pm71 °FClear.3 mph73%29.91 "Hg9 mi
6:52 pm72 °FClear.3 mph71%29.89 "Hg8 mi
Weather by CustomWeather, © 2020

See weather overview